1st Responders/1st Detectors/Storm Spotters Weather Summary for Lewis County, KY

Forecast Maps


Reg. NEXRAD Animation


National Fire Danger: Day 1 & 2 Map

Current NWS Watch/Warnings

SPC Convective Day 1 Outlook


Day 2 Outlook

(Click images to enlarge|Page will refresh every 5 minutes)
UK Ag. Weather Center Desktop Severe Weather Service[HERE]
Lewis County, KY Hazardous Weather Outlook Webcast
(9 AM to 9 PM Mon-Fri)
[Fast]
[Dial-up]


UKAWC 1st Detectors/1st Responders Precision Weather Forecast For LEWIS County, Kentucky
(based on the NWS County Digital Forecast)

ISSUED AT 21:00 UTC ON THURSDAY APR 19 2018
DAY THURSDAY
EDT 3HR 6P 7P
MAX/MIN -- 47°
TEMP 45° 45°
SKY COVER 60% 38%
Clouds
DEW PT 29° 29°
RH 50% 50%
POP 12HR -- --
RAIN/SNOW (liq.equ) -- --
SNOWFALL -- --
WIND SPEED(MPH) 9 8
WIND Gust(MPH) 15 13
WIND DIR NW NW
DEW -- --
HeatIndex 45 45
Rain Showers -- --
Frost -- --
WIND CHILL 40° 41°
SPRAY COND
DRY COND
LIVESTOCK COLDSTRESS
LIVESTOCK HEATSTRESS 48.80 48.80



DAY FRIDAY SATURDAY SUNDAY MONDAY TUESDAY WEDNESDAY
EDT 6HR 8P 9P 10P 11P MIDN 1A 2A 3A 4A 5A 6A 7A 8A 9A 10A 11A NOON 1P 2P 3P 4P 5P 6P 7P 8P 9P 10P 11P MIDN 1A 2A 3A 4A 5A 8A 11A 2P 5P 8P 2A 8A 2P 8P 2A 8A 2P 8P 2A 8A 2P 8P 2A 8A 2P 8P
MAX/MIN -- -- -- -- -- -- -- -- -- -- -- -- 32° -- -- -- -- -- -- -- -- -- -- 58° -- -- -- -- -- -- -- -- -- -- 34° -- -- 61° -- -- 38° 63° -- -- 43° 65° -- -- 47° 61° -- -- 49° 61° --
TEMP 43° 41° 40° 38° 38° 36° 36° 34° 34° 34° 32° 32° 34° 38° 43° 47° 49° 52° 56° 56° 58° 58° 56° 54° 52° 47° 45° 43° 41° 40° 40° 38° 36° 36° 36° 49° 59° 61° 56° 43° 40° 61° 59° 49° 45° 65° 63° 52° 49° 61° 59° 52° 49° 59° 56°
SKY COVER 27% 24% 18% 15% 14% 12% 11% 10% 8% 7% 7% 7% 7% 7% 6% 5% 6% 6% 6% 5% 4% 4% 4% 5% 5% 5% 5% 5% 5% 6% 6% 6% 8% 8% 16% 23% 31% 32% 33% 62% 61% 59% 60% 62% 63% 71% 77% 78% 79% 77% 78% 80% 86% 87% 81%
Clouds
DEW PT 29° 29° 29° 29° 29° 29° 27° 27° 27° 27° 27° 27° 27° 27° 27° 27° 27° 25° 25° 25° 25° 25° 25° 27° 27° 27° 27° 27° 27° 27° 27° 27° 27° 27° 27° 27° 29° 29° 29° 31° 31° 34° 38° 36° 38° 43° 43° 43° 43° 47° 47° 47° 47° 47° 45°
RH 54% 60% 64% 67% 69% 72% 72% 75% 75% 78% 82% 81% 75% 64% 55% 47% 40% 34% 30% 29% 28% 28% 30% 34% 36% 44% 49% 53% 57% 62% 61% 67% 69% 69% 69% 43% 30% 28% 35% 62% 69% 36% 45% 63% 73% 42% 47% 71% 83% 57% 64% 82% 89% 64% 63%
POP 12HR 80% -- -- -- -- -- -- -- -- -- -- -- 6% -- -- -- -- -- -- -- -- -- -- -- 0% -- -- -- -- -- -- -- -- -- 0% -- -- -- 0% -- 3% -- 4% -- 5% -- 18% -- 25% -- 33% -- 30% -- 50%
RAIN/SNOW (liq.equ) 0.00in -- -- -- -- -- 0.00in -- -- -- -- -- 0.00in -- -- -- -- -- 0.00in -- -- -- -- -- 0.00in -- -- -- -- -- 0.00in -- -- -- 0.00in -- 0.00in -- 0.00in -- -- -- -- -- -- -- -- -- -- -- -- -- -- -- --
SNOWFALL 0in -- -- -- -- -- 0in -- -- -- -- -- 0in -- -- -- -- -- 0in -- -- -- -- -- 0in -- -- -- -- -- 0in -- -- -- 0in -- 0in -- 0in -- -- -- -- -- -- -- -- -- -- -- -- -- -- -- --
WIND SPEED(MPH) 7 7 7 6 6 7 7 7 6 6 6 5 5 5 6 6 6 6 6 6 7 7 6 6 5 5 5 5 5 5 5 5 5 5 5 5 5 5 6 6 6 6 6 6 6 7 7 7 7 7 6 2 2 5 6
WIND DIR NW NW NW NW NW NW NW NW N N N N N N N N N N N N N N N N N N N NE NE NE NE NE NE NE E NE NE NE NE E NE NE NE E E SE SE E E SE E E SE NW NW
HeatIndex 39 37 35 34 33 31 30 29 29 28 27 28 31 35 39 47 49 52 56 56 58 58 56 54 52 47 45 41 39 36 36 34 33 32 32 49 59 61 56 39 35 61 59 49 45 65 63 52 49 61 59 52 49 59 56
Rain Showers -- -- -- -- -- -- -- -- -- -- -- -- -- -- -- -- -- -- -- -- -- -- -- -- -- -- -- -- -- -- -- -- -- -- -- -- -- -- -- -- -- -- -- -- -- -- Slight Chance Slight Chance Chance Chance Chance Chance Slight Chance Chance Chance
Frost -- -- -- -- -- -- Patchy Patchy Patchy Patchy Areas of Areas of Patchy -- -- -- -- -- -- -- -- -- -- -- -- -- -- -- -- -- -- -- -- Patchy Patchy -- -- -- -- -- -- -- -- -- -- -- -- -- -- -- -- -- -- -- --
WIND CHILL 39° 36° 35° 34° 34° 30° 30° 28° 29° 29° 27° 28° 30° 35° 39° -- -- -- -- -- -- -- -- -- -- -- 43° 40° 38° 37° 37° 35° 32° 32° 32° -- -- -- -- 39° 36° -- -- -- 42° -- -- -- -- -- -- -- -- -- --
SPRAY COND
DRY COND
LIVESTOCK COLDSTRESS
LIVESTOCK HEATSTRESS 47.00 44.92 43.72 41.78 41.55 39.51 39.51 37.41 37.41 37.00 34.65 34.80 37.41 42.12 46.91 50.44 52.23 54.47 57.08 57.09 58.32 58.32 57.08 55.74 54.39 50.63 48.87 47.08 45.21 43.93 44.03 41.78 39.89 39.89 39.89 52.07 58.92 60.13 57.00 46.30 43.21 60.23 58.94 50.99 47.05 63.02 61.78 53.08 49.92 60.48 58.96 52.67 49.59 58.96 56.57

Click on individual weather variable above in left-hand column (ie., TEMP, RH, QPF 12HR) to view state forecast maps






NWS 48 Hr. Forecast Maps,

Regional Hourly Observations For LEWIS County, Kentucky
Issued at 500 PM EDT THU APR 19 2018
NORTHEAST KENTUCKY
  
CITY           SKY/WX    TMP DP  RH WIND       PRES   REMARKS
LEXINGTON      PTSUNNY   49  32  52 N10       30.29R                  
COVINGTON      FAIR      52  28  39 NW10      30.26S                  
FRANKFORT      FAIR      50  29  44 NW6       30.28S                  


Current NOWCAST not available:
Nowcasts are not issued routinely during fair weather. Only when
precipitation or other significant weather is occuring in this county will these
forecasts be issued. Currently, there is no short term forecast in effect.


Fire Weather Forecast For LEWIS County, KY
Provided by the National Weather Service:

Issued at: Thu Apr 19 17:05:01 EDT 2018

CLOUD COVER                    MClear       MClear        Clear       MClear
PRECIP TYPE                      None         None         None         None
CHANCE PRECIP (%)                   0            0            0            0
TEMP (24H TREND)              31 (-7)      57 (+5)           33           62
RH % (24H TREND)              85 (-3)     31 (-16)           77           31
20FTWND-AM(MPH)                            Lgt/Var                   Lgt/Var
20FTWND-PM(MPH)                 NW  5         N  5      Lgt/Var      Lgt/Var
PRECIP AMOUNT                    0.00         0.00         0.00         0.00
PRECIP DURATION                                                             
MIXING HGT(FT-AGL)                            4640                      3970
TRANSPORT WND (MPH)                           N  8                     NE  6
LAL                                 1            1            1            1
HAINES INDEX                        5            5            4            5

REMARKS...None.

.FORECAST FOR DAYS 3 THROUGH 7...
.SATURDAY NIGHT...Mostly cloudy. Lows around 40. Northeast winds around
5 mph. 
.SUNDAY...Partly sunny. Highs in the lower 60s. Northeast winds around
5 mph. 
.MONDAY...Mostly cloudy. Lows in the mid 40s. Highs in the mid 60s. East
winds around 5 mph. 
.TUESDAY...Cloudy with a chance of showers. Lows in the upper 40s. Highs
in the lower 60s. East winds 5 to 10 mph. 
.WEDNESDAY...Cloudy with a chance of showers. Lows in the upper 40s. Highs
in the lower 60s. Southwest winds around 5 mph. 
.THURSDAY...Mostly cloudy. A chance of showers. Lows in the mid 40s. Highs
in the lower 60s. West winds around 5 mph. 

SPC's Fire Weather Web Tool (Excellent!), SPC's Fire Weather Outlooks, NWS Fire Weather WEB, Fire Danger Class Map,
Keetch-Byram Drought Index, ROMAN Web, Haines Index ,
WFAS's 10-hr Dead Fuel Moist., WFAS's 100-hr Dead Fuel Moist., Probablity of Ignition, Visual blackness Map, Palmer Drought Index, HPC's Rainfall Forecast Maps


Hazardous Weather Outlook For LEWIS County, Kentucky
403 AM EDT Thu Apr 19 2018

   FREEZE WARNING IN EFFECT FROM 2 AM TO 9 AM EDT FRIDAY  

This Hazardous Weather Outlook is for East Central Indiana, 
Southeast Indiana, Northeast Kentucky, Northern Kentucky, Central 
Ohio, South Central Ohio, Southwest Ohio and West Central Ohio.

 DAY ONE  Today and Tonight.

Please listen to NOAA Weather Radio or go to weather.gov on the
Internet for more information about the following hazards.

   Freeze Warning.

 DAYS TWO THROUGH SEVEN  Friday through Wednesday.

Please listen to NOAA Weather Radio or go to weather.gov on the
Internet for more information about the following hazards.

   Freeze Warning.

 SPOTTER INFORMATION STATEMENT  

Spotter activation is not expected at this time.

Latest LEWIS County, Kentucky Watches, Warnings and Advisories.
Additional Drought Info.: UKAWC Drought Page, Kentucky Drought Watch


7-Day Forecast For LEWIS County, KY


FREEZE WARNING IN EFFECT FROM 2 AM TO 9 AM EDT FRIDAY

TONIGHT
Mostly clear. Areas of frost after midnight. Lows in the lower 30s. Northwest winds 5 to 10 mph.

FRIDAY
Areas of frost in the morning. Sunny. Highs in the upper 50s. North winds around 5 mph.

FRIDAY NIGHT
Clear. Patchy frost after midnight. Lows in the mid 30s. Northeast winds around 5 mph.

SATURDAY
Mostly sunny in the morning, then becoming partly cloudy. Patchy frost in the morning. Highs in the lower 60s. Northeast winds around 5 mph.

SATURDAY NIGHT
Partly cloudy. Lows around 40. Northeast winds around 5 mph.

SUNDAY
Partly cloudy. Highs in the lower 60s.

SUNDAY NIGHT
Partly cloudy. Lows in the mid 40s.

MONDAY
Partly cloudy in the morning, then becoming mostly cloudy. Highs in the mid 60s.

MONDAY NIGHT
Mostly cloudy with a 30 percent chance of showers. Lows in the upper 40s.

TUESDAY
Cloudy with a 40 percent chance of showers. Highs in the lower 60s.

TUESDAY NIGHT
Cloudy with a 30 percent chance of showers. Lows in the upper 40s.

WEDNESDAY
Mostly cloudy with a 50 percent chance of showers. Highs in the lower 60s.

WEDNESDAY NIGHT
Partly cloudy with a 50 percent chance of showers. Lows in the mid 40s.

THURSDAY
Partly cloudy with a 40 percent chance of showers. Highs in the lower 60s.

Ag Weather Center, Department of Biosystems & Agricultural Engineering, University of Kentucky